Regional Weather Roundup
Issued by NWS Northern Indiana

Home | Current Version | Previous Version | Text Only | Print | Product List | Glossary Off
Versions: 1 2 3 4 5 6 7 8 9 10 11 12 13 14 15 16 17 18 19 20 21 22 23 24 25 26 27 28 29 30 31 32 33 34 35 36 37 38 39 40 41 42 43 44 45 46 47 48 49 50

000
ASUS43 KIWX 011510
RWRIWX

KIWX WEATHER ROUNDUP
NATIONAL WEATHER SERVICE NORTHERN INDIANA
1100 AM EDT MON SEP 01 2014

NOTE: "FAIR" INDICATES FEW OR NO CLOUDS BELOW 12,000 FEET WITH NO
SIGNIFICANT WEATHER AND/OR OBSTRUCTIONS TO VISIBILITY.

* THESE STATIONS ARE NOT UNDER NWS QUALITY CONTROL. THEY ALSO MAY NOT
  REPORT WEATHER SUCH AS PRECIPITATION OR FOG.

INZ001>027-011600-
NORTHERN INDIANA

CITY           SKY/WX    TMP DP  RH WIND       PRES   REMARKS
GARY*          CLOUDY    77  72  83 S12G23    29.77F FOG
VALPARAISO     CLOUDY    74  71  91 S14G23    29.80F
MICHIGAN CITY* CLOUDY    73  70  88 S14G23    29.79F
LAPORTE*       CLOUDY    73  73  99 S9G20     29.81F FOG
KNOX*          CLOUDY    74  69  84 S14G21    29.81S
SOUTH BEND     CLOUDY    75  70  84 S14G22    29.82S
ELKHART*       CLOUDY    75  72  88 S14       29.83F
GOSHEN         CLOUDY    78  71  79 S15       29.84F
MONTICELLO*    CLOUDY    76  72  87 S15G21    29.84S
LOGANSPORT*    CLOUDY    75  70  83 S15       29.86F
ROCHESTER*     PTSUNNY   79  72  78 S9        29.85F
WARSAW*        CLOUDY    75  70  83 S8G17     29.86S
ANGOLA*        CLOUDY    73  66  78 S9        29.86F
FORT WAYNE     PTSUNNY   78  71  79 S17G26    29.89F
HUNTINGTON*    CLOUDY    77  72  83 SW9G18    29.88F
PERU/GRISSOM   PTSUNNY   78  76  92 SW15      29.87F
MARION*        PTSUNNY   78  70  76 S18       29.90F HAZE

$$
INZ028>050-011600-
CENTRAL INDIANA

CITY           SKY/WX    TMP DP  RH WIND       PRES   REMARKS
LAFAYETTE      CLOUDY    76  71  85 S15G22    29.84F
KOKOMO*        PTSUNNY   79  70  73 SW17G28   29.88F
MUNCIE*        PTSUNNY   77  70  79 SW12G17   29.92F
INDIANAPOLIS   CLOUDY    76  71  85 S16       29.91F

$$
MIZ043>046-050>051-056>058-064>065-071>073-077>080-011600-
SOUTHWEST LOWER MICHIGAN

CITY           SKY/WX    TMP DP  RH WIND       PRES   REMARKS
BATTLE CREEK   CLOUDY    76  71  85 S13       29.83F
BENTON HARBOR  CLOUDY    74  70  87 S15G23    29.77F
COLDWATER*     CLOUDY    76  72  86 S8        29.85F
HILLSDALE*     CLOUDY    74  74  99 S9        29.89F FOG
HOLLAND        CLOUDY    77  72  84 S18G24    29.75F
GRAND RAPIDS   CLOUDY    75  74  96 S17       29.79F FOG
KALAMAZOO      CLOUDY    77  71  82 S9        29.82F
STURGIS*         N/A     75  72  88 S13       29.84F FOG
THREE RIVERS*  CLOUDY    76  72  86 S10       29.84S FOG

$$
OHZ001>008-015>018-024>025-011600-
NORTHWEST OHIO

CITY           SKY/WX    TMP DP  RH WIND       PRES   REMARKS
WAUSEON*       CLOUDY    77  72  83 S10G18    29.90F
DEFIANCE       CLOUDY    78  70  76 S13G21    29.89F
FINDLAY        PTSUNNY   77  70  79 S12       29.93F
TOLEDO EXPRESS CLOUDY    75  70  84 S9        29.91F
TOLEDO METCALF CLOUDY    75  68  78 S16       29.93F
LIMA           PTSUNNY   78  71  79 S15       29.95F

$$
&&


USA.gov is the U.S. government's official web portal to all federal, state and local government web resources and services.